EHI
18 19 17 10 4 3 2 1 0 0 0 0 0 1 1 0 1 2 2 2 1 0 0 0 1 2 1 1 1 1 2 2 3 2 1 2 2 1 0 1 0 0 0
19 19 16 9 4 3 2 1 0 0 0 0 0 1 2 1 0 1 1 1 1 0 0 1 2 2 3 3 2 1 1 2 2 2 1 1 1 1 1 1 1 0 0
17 15 12 8 4 2 1 1 0 1 1 1 1 2 2 1 0 0 0 1 1 1 1 2 3 4 5 5 4 3 2 3 3 3 2 1 0 1 2 2 1 0 1
15 13 12 9 5 3 3 2 1 1 2 3 3 3 3 2 2 1 1 2 2 2 3 4 5 5 6 5 4 3 3 4 3 3 3 1 1 2 3 2 1 1 2
17 17 17 13 8 6 5 3 3 3 4 4 4 5 5 5 5 4 3 3 3 3 3 4 6 6 5 5 5 5 5 5 4 3 2 2 3 5 5 3 2 2 4
18 20 20 17 12 7 5 4 4 4 5 5 6 8 8 7 7 6 5 4 4 4 4 5 6 6 5 5 7 9 8 8 7 3 2 3 6 10 9 6 5 5 6
21 20 18 17 14 9 6 6 6 6 7 7 7 9 9 9 9 8 6 6 6 5 5 5 7 6 4 6 10 12 11 10 8 4 2 5 11 16 15 13 10 7 6
22 21 16 13 13 10 8 6 7 7 7 7 7 8 8 8 8 8 7 6 6 6 6 7 7 6 5 8 13 14 13 11 8 3 2 7 16 22 21 18 13 9 6
18 18 14 11 11 10 8 7 8 9 8 7 7 7 8 8 8 9 9 8 7 7 8 9 9 8 9 12 15 15 15 12 7 2 1 8 21 28 25 20 14 9 7
11 12 13 13 12 10 8 9 10 10 9 7 7 8 8 9 10 12 13 12 11 10 10 11 12 12 13 14 16 16 15 11 6 3 3 10 22 29 26 20 15 10 8
7 9 10 12 12 11 10 12 12 11 10 9 8 8 8 9 11 13 16 18 16 13 12 13 16 16 14 13 14 15 12 8 6 4 6 15 22 25 23 20 16 11 10
7 8 8 9 9 9 10 13 12 10 10 11 11 10 9 8 9 11 15 19 18 14 12 15 19 17 13 9 10 11 8 5 5 4 9 19 25 24 23 20 15 12 11
6 8 9 9 7 5 8 11 10 8 9 9 11 12 10 7 6 7 10 13 13 11 11 14 16 14 10 6 6 7 6 3 3 3 9 20 25 25 23 20 15 11 10
7 9 12 12 9 6 7 7 7 6 6 7 10 11 10 7 5 5 5 5 6 7 8 10 11 11 9 7 7 7 5 3 2 3 9 19 22 22 22 20 15 10 9
14 15 16 17 15 11 8 6 5 5 4 6 9 10 8 5 4 5 5 3 2 4 6 8 10 11 10 9 8 7 6 3 2 4 9 17 20 21 21 17 13 11 9
24 23 22 23 22 16 10 7 4 3 3 4 7 8 7 4 4 5 4 2 2 3 6 9 10 10 9 7 6 6 6 4 3 4 6 11 17 21 20 15 12 11 10
32 30 27 26 26 20 12 7 4 2 2 4 7 8 7 5 5 4 3 3 4 5 7 9 9 8 5 4 4 5 5 5 5 5 6 7 12 17 18 17 16 15 14
37 35 29 25 25 22 14 9 6 6 7 10 12 11 8 7 7 5 5 6 6 5 6 7 8 7 5 4 4 4 4 6 7 7 7 8 10 11 15 18 19 19 19
42 39 32 27 25 24 19 13 11 12 14 17 18 16 12 9 7 7 7 8 7 6 6 7 8 8 7 6 5 4 3 4 6 6 7 7 8 10 12 15 16 17 18
43 41 36 33 30 29 25 19 15 15 18 21 21 21 18 10 5 5 6 7 6 6 8 8 9 8 7 6 4 3 2 2 4 5 5 5 6 9 12 13 14 14 14
45 43 40 38 37 34 31 25 19 18 21 22 22 22 18 10 6 5 4 5 6 8 8 9 8 7 5 4 3 3 3 3 3 4 4 4 5 8 12 14 16 16 14
47 44 42 41 40 38 34 30 26 24 23 22 21 20 16 12 9 6 5 6 8 8 7 7 7 5 3 2 3 4 5 4 3 3 4 5 5 8 10 12 16 17 17
45 42 43 45 45 41 37 33 31 28 23 20 21 22 18 14 11 10 9 8 8 7 5 5 4 4 3 2 4 5 6 6 5 4 4 5 6 7 7 8 12 17 19
41 42 46 52 53 47 41 36 32 28 23 20 22 24 22 18 17 16 13 10 8 8 5 3 3 3 4 4 4 5 6 7 8 6 5 5 7 7 7 6 10 17 22
42 44 51 60 61 57 49 41 35 28 23 23 26 26 24 23 22 19 15 12 9 8 6 4 4 5 6 6 6 6 7 7 8 7 5 6 8 9 10 10 12 17 21
42 45 55 64 66 61 53 45 38 30 25 27 30 29 25 24 23 19 17 14 9 6 5 5 6 7 7 7 8 9 7 7 7 6 6 7 9 10 12 13 14 16 19
Wind_Speed
9 10 10 10 9 9 9 9 9 9 9 9 9 8 9 9 10 10 10 10 10 10 9 9 8 8 8 8 8 8 9 10 9 9 9 9 9 8 8 7 7 7 11
11 11 11 10 10 9 9 9 9 9 9 9 9 8 8 9 9 9 9 9 9 9 8 8 8 8 7 7 8 8 8 8 8 8 8 8 8 8 7 6 7 7 10
12 11 11 10 10 9 9 9 9 9 9 8 8 8 8 8 8 8 8 8 8 7 7 7 7 7 7 7 6 7 7 7 7 8 8 6 7 8 8 8 9 9 9
13 11 11 11 10 9 9 9 8 8 8 8 7 7 7 7 7 7 7 7 7 7 6 6 6 6 6 6 6 6 6 6 7 7 5 4 6 9 9 8 8 8 8
13 13 12 12 10 10 9 8 8 8 8 8 7 7 7 7 7 6 6 6 6 6 6 6 5 5 5 5 5 5 5 6 6 6 3 4 5 10 10 9 8 8 8
13 14 13 13 11 10 9 8 8 8 7 7 7 6 6 7 6 6 6 5 5 5 5 5 5 5 5 5 5 4 4 5 5 4 3 4 6 10 11 9 8 8 7
13 13 13 13 12 11 9 8 8 7 7 6 6 6 6 6 6 6 5 5 5 4 5 5 5 4 4 5 5 4 5 5 5 3 3 5 8 12 11 10 9 7 7
13 14 12 13 12 11 10 8 8 7 6 6 6 5 6 5 5 5 5 5 5 4 4 5 4 4 4 5 5 5 6 7 5 4 3 5 11 13 12 10 9 8 7
12 13 11 10 10 11 10 9 8 7 6 6 5 5 5 5 5 5 5 5 5 5 4 5 5 5 5 5 6 6 6 8 5 2 3 5 12 13 12 10 9 8 8
9 10 10 9 9 8 9 9 8 8 6 6 5 5 5 5 5 6 5 5 6 5 5 5 5 5 5 6 7 8 8 7 5 3 2 6 12 13 12 11 10 9 8
7 7 8 7 8 7 8 9 9 8 6 5 5 6 5 4 5 5 5 7 6 7 6 7 6 6 6 7 9 10 8 4 3 2 2 8 12 12 11 10 10 10 9
8 7 6 6 6 6 5 6 5 5 5 4 2 3 3 2 2 3 6 8 8 8 7 8 8 7 6 4 6 9 4 4 3 2 3 9 10 11 11 10 9 9 10
8 7 6 6 5 4 3 4 2 2 3 3 2 2 1 1 1 2 2 4 5 6 4 6 6 4 4 3 2 3 3 2 1 2 4 9 10 9 10 9 9 9 9
8 7 6 6 5 4 2 2 2 1 2 2 2 1 1 1 2 2 1 1 1 2 3 2 2 2 2 2 3 3 2 1 1 2 4 9 10 9 9 9 9 9 9
7 7 7 6 5 3 2 1 3 2 2 3 2 2 3 2 2 2 2 2 1 1 1 1 1 1 1 1 1 1 2 2 1 1 3 7 8 9 8 8 8 9 9
7 6 6 7 5 3 2 1 1 2 1 2 3 3 2 2 2 2 2 1 2 1 1 1 1 1 1 1 0 0 1 1 2 2 3 4 6 7 7 7 8 8 9
7 6 5 7 6 3 2 1 1 1 2 2 3 4 3 3 2 2 1 1 2 1 1 1 1 1 0 1 1 1 1 1 1 3 3 3 3 5 6 7 7 8 9
8 7 5 5 6 5 2 1 1 2 2 2 3 3 3 3 2 1 1 2 2 2 1 1 1 1 1 0 1 1 1 2 2 2 3 3 3 3 5 7 6 6 8
8 7 5 4 4 5 4 2 1 2 2 2 3 3 2 2 2 1 2 2 1 1 2 2 2 1 1 0 1 1 1 1 1 2 2 3 4 3 3 6 7 6 7
8 7 6 5 4 4 3 2 1 1 2 2 3 3 3 2 2 2 1 1 2 2 2 2 1 1 1 1 1 1 2 2 2 2 2 2 3 4 4 5 4 5 7
8 7 6 5 4 3 3 3 2 2 2 2 2 3 3 2 2 1 2 1 1 2 2 2 1 1 1 0 1 1 1 2 2 2 2 2 2 3 4 5 4 3 4
9 8 7 5 5 5 3 2 2 2 2 2 2 3 2 2 2 1 1 1 1 1 2 1 1 2 1 0 0 1 0 0 1 2 3 3 2 2 3 5 4 4 4
9 9 7 6 6 5 4 3 2 2 1 2 2 2 2 2 2 2 2 1 1 1 1 0 1 1 2 1 0 0 0 1 1 0 2 2 3 2 2 2 4 5 5
10 9 8 7 6 5 4 3 3 3 2 2 2 2 2 2 2 2 1 1 1 2 2 1 2 2 2 2 1 0 1 0 0 1 1 1 2 2 2 1 2 3 3
9 9 9 7 7 6 5 4 3 2 2 2 3 3 3 3 2 2 2 1 1 1 2 2 2 2 2 2 2 2 1 1 1 1 1 1 1 1 2 2 1 2 3
8 9 9 8 7 7 6 5 4 3 3 3 3 3 3 3 2 2 2 1 1 1 1 1 1 1 2 3 3 3 2 1 1 1 1 2 1 1 1 1 1 2 2
Wind_Direction
108 110 109 102 97 95 91 89 89 92 95 96 98 100 100 103 106 111 114 116 118 120 123 125 125 126 122 115 113 114 115 116 116 114 111 110 111 115 118 119 118 115 116
113 112 110 107 102 100 97 94 93 94 94 94 97 99 102 105 108 113 115 119 123 126 127 131 133 133 128 122 123 124 125 129 133 133 132 127 122 120 119 114 102 113 119
113 114 112 108 106 103 100 96 95 94 95 96 99 100 103 107 114 117 120 124 128 131 132 136 138 138 137 133 135 138 142 148 155 159 159 147 135 133 124 113 112 118 119
117 116 110 112 109 105 101 98 98 96 94 97 102 101 104 111 116 117 122 127 131 133 137 139 143 144 150 146 147 152 159 169 182 190 184 164 145 138 135 126 124 124 123
114 109 112 114 110 106 103 101 100 98 96 96 104 108 111 116 119 118 124 131 130 133 137 138 143 147 152 157 159 170 182 190 198 217 193 142 127 141 142 136 133 133 135
116 113 117 117 115 112 109 107 105 102 100 98 99 106 116 120 123 120 123 134 131 134 145 144 151 155 164 172 179 191 201 210 216 214 175 143 131 145 145 143 139 139 145
117 116 123 125 122 119 117 116 114 109 106 104 104 104 114 120 119 121 126 137 138 139 151 153 159 166 177 188 193 201 219 227 229 216 172 148 140 150 150 151 149 150 153
118 120 126 133 133 131 127 124 125 121 117 112 109 110 119 126 130 131 137 147 150 152 158 168 171 177 190 199 206 216 229 243 226 206 173 141 149 155 155 156 156 161 165
114 124 136 139 141 139 136 136 135 134 135 134 131 134 140 146 150 150 153 154 156 162 170 177 181 185 196 208 217 227 237 247 254 225 179 139 153 157 159 161 166 171 172
112 119 131 139 141 146 146 149 148 147 152 152 155 164 166 170 174 175 172 168 170 175 176 177 183 193 202 212 219 228 239 251 239 216 157 143 155 159 163 167 174 177 182
107 113 122 127 138 147 145 149 159 158 166 167 174 189 195 191 182 184 171 174 184 189 188 188 195 201 206 215 219 225 235 236 217 177 144 150 159 163 167 172 179 183 185
117 114 113 116 115 130 139 139 162 163 163 178 169 183 205 201 179 159 162 181 191 197 200 200 208 211 215 217 215 217 225 223 200 157 150 150 158 166 169 175 182 187 189
119 114 110 101 94 89 101 132 147 150 149 160 157 174 171 189 137 131 157 178 195 200 208 203 214 221 214 198 209 200 208 213 166 152 155 156 162 171 174 175 181 187 192
117 114 106 102 93 78 77 113 121 125 125 123 131 94 89 70 40 49 66 155 183 190 190 193 199 215 214 203 194 185 192 183 149 137 148 158 164 171 176 178 182 188 193
119 117 109 101 96 94 66 43 110 117 111 116 109 81 50 46 40 55 31 11 354 68 137 169 182 184 202 225 234 173 158 146 120 144 145 165 169 175 178 183 188 196 196
128 122 121 120 113 108 103 33 74 108 107 102 101 93 81 65 46 68 64 8 359 29 31 90 136 144 181 156 171 184 142 160 167 164 155 166 170 174 179 187 197 202 201
134 132 135 138 133 138 139 190 125 127 113 98 98 93 81 71 54 46 70 29 11 21 34 49 57 67 123 127 193 199 168 168 198 172 165 162 166 177 184 192 202 204 203
137 133 141 148 143 147 149 162 58 71 91 94 99 99 86 75 64 33 60 43 14 14 21 54 60 46 46 189 223 196 156 164 185 183 164 166 171 177 185 188 190 198 198
138 140 148 148 145 150 155 159 140 104 91 95 96 99 101 85 51 37 59 28 355 36 31 19 51 12 331 277 222 182 178 166 181 189 167 171 172 172 166 176 185 189 196
143 145 152 153 150 152 154 151 154 127 120 109 101 99 105 92 74 30 68 30 8 44 42 36 16 341 319 295 288 203 198 187 189 178 176 168 167 172 167 167 177 190 193
147 148 154 155 150 151 158 170 176 159 141 126 122 117 115 97 82 74 31 35 36 62 48 29 8 314 293 303 298 267 206 198 177 167 173 171 168 167 169 167 177 176 184
155 155 158 163 159 166 165 167 162 150 149 136 119 117 130 116 87 93 71 356 44 88 65 17 18 331 322 8 307 308 309 298 283 189 175 176 178 185 191 186 180 179 180
163 165 169 169 165 172 167 164 159 138 142 127 129 129 127 123 115 59 60 25 15 55 80 349 16 349 323 314 45 26 6 317 310 226 201 170 172 182 200 188 186 183 183
169 168 164 163 163 169 169 171 172 157 159 147 134 128 138 131 120 109 86 65 27 34 55 12 48 338 323 321 306 196 171 150 239 305 284 179 173 176 194 204 179 168 172
170 165 163 160 163 167 173 166 170 160 157 143 141 144 151 140 123 112 105 86 80 59 44 23 23 358 353 342 337 334 321 270 242 233 277 277 222 187 189 192 187 167 168
166 161 159 157 163 165 170 169 171 168 165 152 152 160 170 152 139 125 117 89 75 73 50 28 355 10 1 355 341 334 334 327 311 290 276 274 262 230 199 180 179 171 172